GEFSSE_con_prob3kmehi_144.txt.gz
EHI
38 36 35 22 6 2 0 0 0 0 0 0 0 0 0 0 0 0 0 0 0 0 0 0 0 0 0 0 0 0 0 0 0 0 0 0 0 0 0 1 0 0 0
43 38 34 23 8 3 1 0 0 1 1 0 0 0 0 0 0 0 0 0 0 0 0 0 0 0 0 0 0 0 0 0 0 0 0 0 0 1 1 2 1 0 0
42 34 29 24 13 6 3 1 0 1 1 0 0 0 0 0 0 0 0 0 0 0 0 0 0 0 0 0 0 0 0 0 0 0 0 0 0 1 2 3 2 0 0
33 29 27 26 19 10 5 2 1 1 1 0 0 0 0 0 0 0 0 0 0 0 0 0 0 0 0 0 0 0 0 0 0 0 0 0 0 1 2 2 1 0 0
30 30 31 30 23 15 9 5 2 1 0 0 0 0 0 0 0 0 0 0 0 0 0 0 0 0 0 0 0 0 0 1 1 1 0 0 0 0 1 1 0 0 0
35 32 31 31 25 18 13 8 5 2 1 1 1 0 0 0 0 0 0 0 0 0 0 0 0 0 0 0 0 0 1 2 3 1 0 1 1 0 0 0 0 0 0
40 33 30 30 27 19 13 9 7 4 3 2 2 1 0 0 0 0 0 0 0 0 0 0 0 0 0 0 0 0 2 4 4 1 1 2 2 1 0 0 0 0 0
43 35 29 28 24 18 11 8 7 5 4 3 2 1 0 0 0 0 0 0 1 0 0 0 0 0 0 0 0 0 3 6 5 2 2 3 3 2 1 0 0 0 0
42 31 23 20 17 13 8 5 5 4 4 3 2 1 0 0 0 0 0 0 0 0 0 0 0 0 0 0 0 0 2 6 6 4 4 4 3 3 2 1 0 0 0
42 29 18 15 12 8 6 5 4 4 4 3 2 1 0 0 0 0 1 0 0 0 0 0 0 0 0 0 0 0 1 4 4 5 7 5 4 4 3 2 1 0 0
43 33 20 14 10 5 4 6 5 4 2 2 2 1 0 1 1 1 2 2 1 0 0 0 0 0 0 0 0 0 0 1 2 5 7 6 5 4 3 3 2 1 0
39 32 22 16 12 7 7 9 8 5 3 2 3 2 2 3 4 4 5 4 2 1 1 1 0 0 0 0 1 1 0 0 2 5 7 7 7 5 3 3 2 1 0
33 29 25 23 21 17 16 16 15 11 8 7 7 6 6 8 10 11 9 6 4 3 3 3 2 0 0 1 2 2 1 1 3 6 7 8 8 5 4 4 3 1 0
34 33 32 32 33 32 30 28 25 20 15 13 12 12 12 14 16 17 15 11 7 5 6 7 5 2 2 2 3 2 3 3 5 7 7 7 6 4 4 4 3 2 1
35 36 37 38 40 41 41 38 33 27 21 17 16 15 15 16 19 21 20 14 9 8 8 8 7 4 4 4 3 2 4 4 5 7 7 7 6 4 4 5 3 1 0
34 34 36 37 39 40 39 35 29 25 21 19 17 15 14 15 19 20 15 10 9 10 8 6 5 5 4 4 3 2 3 3 4 7 8 7 6 5 5 5 3 1 1
32 32 31 30 33 34 31 26 21 19 19 19 18 15 12 13 14 11 7 7 10 11 8 6 5 4 3 4 3 2 3 3 4 8 11 9 6 4 3 4 3 3 2
28 29 28 26 27 28 25 22 19 18 19 19 19 15 11 9 7 4 4 5 8 9 8 6 5 4 3 5 5 3 3 4 5 9 12 12 10 7 5 5 4 4 4
24 25 27 27 25 22 20 20 20 20 19 17 17 14 10 6 3 3 4 4 5 6 8 7 6 4 5 6 4 2 2 4 4 6 9 10 12 12 9 6 5 4 4
19 21 23 24 22 19 16 16 15 14 14 13 13 11 8 5 2 3 4 3 2 5 8 8 7 6 6 6 3 1 1 2 2 3 4 6 8 10 10 9 8 8 5
14 16 18 19 18 15 15 14 10 7 8 9 9 7 4 2 1 1 2 1 2 5 7 7 6 6 6 5 3 2 1 2 3 3 3 3 4 7 9 11 13 12 9
10 11 14 16 13 11 11 10 7 5 5 6 6 3 1 1 0 0 1 1 2 3 4 4 4 4 4 5 4 3 1 2 4 3 3 3 4 6 8 9 13 12 9
8 8 11 11 9 7 6 5 3 3 4 4 3 1 0 0 0 0 0 1 2 2 2 2 2 2 3 4 4 3 2 2 2 2 2 3 4 5 4 5 7 7 4
7 7 8 9 8 5 2 1 1 2 2 2 1 1 0 0 0 0 0 1 1 1 1 1 1 1 2 3 3 3 2 1 0 1 1 2 3 2 1 2 2 2 1
6 5 6 8 8 4 2 1 1 1 0 0 0 1 0 0 0 0 0 0 0 0 1 0 0 0 1 1 1 1 1 1 0 0 0 1 1 0 0 0 0 1 1
5 3 3 7 7 4 2 1 1 0 0 0 0 1 0 0 0 0 0 0 0 0 1 0 0 0 0 0 0 0 0 1 0 0 0 0 0 0 1 1 1 1 1

GEFSSE_con_prob3kmehi_150.txt.gz
EHI
12 22 32 34 30 23 16 9 5 5 5 5 4 3 3 3 3 3 3 3 3 3 3 3 3 3 3 3 3 3 3 3 3 3 3 3 3 3 3 3 3 3 3
19 26 35 35 29 23 16 9 6 5 5 4 3 3 3 3 3 3 3 3 3 3 3 3 3 3 3 3 3 3 3 3 3 3 3 3 3 3 3 3 3 3 3
30 30 34 36 31 24 15 9 6 4 4 3 3 3 3 3 3 3 3 3 3 3 3 3 3 3 3 3 3 3 3 3 3 3 3 3 3 3 3 3 3 3 3
37 31 31 36 35 26 16 9 6 4 3 3 3 3 3 3 3 3 3 3 3 3 3 3 3 3 3 3 3 3 3 3 3 3 3 3 3 3 3 3 3 3 3
35 30 31 37 36 27 16 9 5 4 3 3 3 3 3 3 3 3 3 3 3 3 3 3 3 3 3 3 3 3 3 3 3 3 3 3 3 3 3 3 3 3 3
33 30 32 37 34 24 16 10 6 4 3 3 3 3 3 3 3 3 3 3 3 3 3 3 3 3 3 3 3 3 4 4 3 3 3 3 3 3 3 3 3 3 3
35 31 30 33 29 21 15 11 8 4 3 3 3 3 3 3 3 3 3 3 3 3 3 3 3 3 3 3 3 4 4 4 4 3 3 3 3 3 3 3 3 3 3
36 30 26 24 21 18 16 14 10 6 4 3 3 3 3 3 3 3 3 3 3 3 3 3 3 3 3 3 3 3 4 4 3 3 3 3 3 3 3 3 3 3 3
32 28 23 17 14 14 15 15 12 8 6 4 3 3 3 3 3 3 3 3 3 3 3 3 3 3 3 3 3 3 3 3 3 3 3 3 3 3 3 3 3 3 3
25 22 18 14 11 11 12 12 10 8 6 5 4 3 3 3 3 3 3 3 3 3 3 3 3 3 3 3 4 3 3 3 3 3 3 3 3 3 3 3 3 3 3
19 16 13 12 11 10 9 7 5 5 5 5 4 3 3 3 3 3 3 3 3 3 3 3 3 3 3 4 4 4 3 3 3 3 3 3 3 3 3 3 3 3 3
19 16 13 12 11 9 7 4 2 1 3 4 3 3 3 3 3 3 3 3 3 3 3 3 3 3 3 3 4 3 3 3 3 3 3 3 3 3 3 3 3 3 3
22 19 15 11 10 8 7 4 2 1 1 1 3 3 3 3 3 3 3 3 3 3 3 3 3 3 3 3 3 3 3 3 3 3 3 3 3 3 4 4 4 3 3
20 18 14 10 8 7 6 4 2 1 0 1 2 3 3 3 3 3 3 3 3 3 3 3 3 3 3 3 3 3 3 3 3 3 3 3 3 4 4 5 4 4 3
15 14 12 9 7 6 5 3 1 1 0 0 1 2 3 3 3 3 3 3 3 3 3 3 3 3 3 3 3 3 3 3 3 3 3 3 4 4 4 4 4 3 3
13 13 11 9 7 6 5 4 2 1 0 0 0 1 3 3 3 3 3 3 3 3 3 3 3 3 3 3 3 3 3 3 3 3 3 4 4 4 4 4 4 4 4
15 14 12 9 8 7 5 4 4 2 1 0 0 1 2 3 3 3 3 3 3 3 3 3 3 3 3 3 3 3 3 3 3 3 3 3 4 4 4 5 5 5 5
17 16 13 11 9 7 5 4 4 2 1 0 0 0 1 1 2 2 2 3 3 3 3 3 3 3 3 3 3 3 3 3 3 3 3 3 3 3 3 4 5 5 5
16 16 14 11 8 6 5 4 2 1 1 0 0 0 0 0 1 1 1 1 2 2 3 3 3 3 3 3 3 3 3 3 3 3 3 3 3 3 3 3 4 4 4
13 13 12 9 6 4 4 3 1 0 0 0 0 0 0 0 0 0 0 0 1 1 1 2 2 2 3 3 3 3 3 3 3 3 3 3 3 3 3 3 3 4 4
9 9 8 7 5 3 2 2 1 0 0 0 0 0 0 0 0 0 0 0 0 0 0 1 1 1 1 2 2 2 2 2 3 3 3 3 3 3 3 3 3 3 4
6 7 7 6 4 2 1 1 0 0 1 0 0 0 0 0 0 0 0 0 0 0 0 0 0 0 0 1 1 1 1 1 1 2 2 3 3 3 3 3 3 4 4
5 5 6 5 3 1 0 0 0 0 0 0 0 0 0 0 0 0 0 0 0 0 0 0 0 0 0 0 0 0 0 0 0 1 1 1 2 2 3 3 3 3 4
4 4 4 4 2 0 0 0 0 0 0 0 0 0 0 0 0 0 0 0 0 0 0 0 0 0 0 0 0 0 0 0 0 0 0 0 1 1 1 2 2 2 2
2 2 2 1 0 0 0 0 0 0 0 0 0 0 0 0 0 0 0 0 0 0 0 0 0 0 0 0 0 0 0 0 0 0 0 0 0 0 0 1 1 1 1
1 1 1 0 0 0 0 0 0 0 0 0 0 0 0 0 0 0 0 0 0 0 0 0 0 0 0 0 0 0 0 0 0 0 0 0 0 0 0 0 0 0 0

GEFSSE_con_prob3kmehi_156.txt.gz
EHI
8 9 12 17 22 28 33 36 33 25 19 16 11 6 4 3 3 3 3 3 2 3 3 2 3 3 3 3 3 3 2 1 0 1 2 3 1 0 1 2 3 3 3
14 12 15 20 24 28 31 33 29 23 18 15 10 6 3 3 3 3 3 3 3 3 3 3 3 3 3 3 3 3 3 1 0 1 2 2 1 1 1 3 3 3 3
19 15 17 23 27 29 30 29 25 20 16 13 9 5 3 3 3 3 3 3 3 3 3 3 3 3 3 3 3 3 3 2 1 1 1 1 1 1 2 3 3 3 3
20 16 16 24 28 30 30 27 23 18 15 12 8 5 3 3 3 3 3 3 3 3 3 3 3 3 2 2 3 3 3 3 2 1 0 0 0 1 3 3 3 3 3
20 16 18 25 29 30 29 26 22 17 14 12 9 6 4 3 3 3 3 3 3 3 3 3 3 3 3 3 3 3 3 3 2 1 0 0 1 2 3 3 3 3 3
17 16 20 27 30 29 27 24 19 15 13 12 9 6 4 3 3 3 3 3 3 3 3 3 3 3 3 3 3 3 3 3 1 0 0 0 1 2 3 3 3 3 3
16 16 21 29 31 28 25 22 17 13 10 9 7 5 4 3 3 3 3 3 3 3 3 3 3 3 3 3 3 3 3 2 1 0 1 1 1 3 3 3 3 3 3
17 18 22 27 29 26 22 18 14 11 8 6 5 4 3 3 3 3 3 3 3 3 3 3 3 3 3 3 3 3 3 3 1 1 2 2 3 3 3 3 3 3 3
19 20 23 23 21 19 16 12 10 9 7 6 4 3 3 3 3 3 3 3 3 3 3 3 3 3 3 3 3 3 3 3 3 3 3 3 3 3 3 3 3 3 3
18 19 21 20 15 11 9 8 8 8 7 6 4 3 3 3 3 3 3 3 3 3 3 3 3 3 3 3 3 3 3 3 3 3 3 3 3 3 3 3 3 3 3
16 15 16 17 14 9 6 6 7 7 7 6 4 3 3 3 3 3 3 3 3 3 3 3 3 3 3 3 3 3 3 3 3 3 3 3 3 3 3 3 3 3 3
15 12 10 13 13 10 8 8 6 4 5 4 4 3 3 3 3 3 3 3 3 3 2 2 2 2 2 2 3 3 3 3 3 3 3 3 3 3 3 3 3 3 3
11 9 7 8 10 10 11 10 6 3 3 3 3 2 1 1 2 2 2 2 2 1 1 1 1 1 1 1 1 3 3 3 3 3 3 3 3 3 3 3 3 3 3
9 8 7 7 8 10 11 10 8 5 2 1 1 1 0 0 1 1 1 1 1 0 0 0 0 0 0 0 1 3 3 3 3 3 3 3 3 3 3 3 3 3 3
10 9 8 7 8 10 11 10 8 5 2 0 0 0 0 0 0 0 0 0 0 0 0 0 0 0 0 1 2 3 3 3 3 4 4 3 3 3 3 3 3 3 3
11 10 8 8 8 9 9 7 6 4 2 0 0 0 0 0 0 0 0 0 0 0 0 0 0 0 0 1 2 3 3 3 4 4 4 4 3 3 3 3 3 3 3
9 8 8 8 8 7 6 4 4 3 2 0 0 0 0 0 0 0 0 0 0 0 0 0 0 0 0 0 1 2 3 3 3 4 4 3 3 3 3 3 3 3 3
7 8 9 9 8 6 4 2 2 2 1 0 0 0 0 0 0 0 0 0 0 0 0 0 0 0 0 0 0 1 1 2 3 3 3 3 3 3 3 3 3 3 3
6 6 8 9 8 6 3 1 1 1 0 0 0 0 0 0 0 0 0 0 0 0 0 0 0 0 0 0 0 0 0 1 2 3 3 3 3 3 3 3 3 3 3
4 4 5 7 7 5 3 1 0 0 0 0 1 1 0 0 0 0 0 0 0 0 0 0 0 0 0 0 0 0 0 0 1 1 2 3 3 3 3 3 3 3 3
4 3 4 5 6 5 3 2 0 0 0 0 1 1 0 0 0 0 0 0 0 0 0 0 0 0 0 0 0 0 0 0 0 0 1 2 3 3 3 3 3 3 3
6 5 4 4 5 4 2 1 1 1 0 0 0 0 0 0 0 0 0 0 0 0 0 0 0 0 0 0 0 0 0 0 0 0 0 1 1 2 3 3 3 3 3
6 5 4 3 3 2 1 1 2 1 0 0 0 0 0 0 0 0 0 0 0 0 0 0 0 0 0 0 0 0 0 0 0 0 0 0 0 1 1 2 3 3 3
5 4 3 2 1 0 0 1 1 1 0 0 0 0 0 0 0 0 0 0 0 0 0 0 0 0 0 0 0 0 0 0 0 0 0 0 0 0 0 1 2 3 3
3 3 2 1 0 0 0 0 0 0 0 0 0 0 0 0 0 0 0 0 0 0 0 0 0 0 0 0 0 0 0 0 0 0 0 0 0 0 0 0 1 2 1
3 3 2 1 0 0 0 0 0 0 0 0 0 0 0 0 0 1 1 1 0 0 0 0 0 0 0 0 0 0 0 0 0 0 0 0 0 0 0 0 0 1 0

GEFSSE_con_prob3kmehi_162.txt.gz
EHI
2 3 5 2 0 0 1 2 3 3 3 3 2 1 0 0 0 0 0 0 0 0 0 0 0 0 0 0 0 0 0 1 0 0 0 0 0 0 0 0 0 0 0
5 6 6 3 1 0 1 3 4 3 3 3 2 1 0 0 0 0 0 0 0 0 0 0 0 0 0 0 0 0 0 1 0 0 0 0 0 0 0 0 0 0 0
8 8 7 4 2 1 1 3 4 4 3 2 1 0 0 0 0 0 0 0 0 0 0 0 0 0 0 0 0 0 0 0 0 0 0 0 0 0 0 0 1 0 0
9 8 7 6 4 3 2 2 4 4 3 1 0 0 0 0 0 0 0 0 0 0 0 0 0 0 0 0 0 0 0 0 0 0 0 0 0 0 0 0 0 0 0
7 7 8 7 5 3 1 1 3 3 2 1 0 0 0 0 0 0 0 0 0 0 0 0 0 0 0 0 0 0 0 0 0 0 0 0 0 0 0 0 0 0 1
6 7 10 9 5 3 1 1 1 2 2 1 0 0 0 0 0 0 0 0 0 0 0 0 0 0 0 0 0 0 0 0 0 0 0 0 1 1 0 0 0 0 1
6 9 11 9 6 4 3 1 1 2 3 2 0 0 0 0 0 0 0 0 0 0 0 0 0 0 0 0 0 0 0 0 0 0 0 0 1 1 0 0 0 0 1
6 9 10 8 6 5 5 4 3 3 3 1 0 0 0 0 0 0 0 0 0 0 1 0 0 0 0 0 0 0 0 0 0 0 0 0 0 0 0 0 0 0 0
6 8 8 5 3 3 4 4 4 3 1 0 0 0 0 0 0 0 0 0 0 0 0 0 0 0 0 0 0 0 0 0 0 0 0 0 0 0 0 0 0 0 0
9 8 6 5 2 2 1 2 2 2 1 0 0 0 0 0 0 0 0 0 0 0 0 0 0 0 0 0 0 0 0 0 0 0 0 0 0 0 0 0 0 0 0
15 12 9 7 4 2 0 1 2 2 2 1 0 0 0 0 0 0 0 0 0 0 0 0 0 0 0 0 0 0 0 0 0 0 0 1 0 0 0 0 0 0 0
22 17 12 8 5 2 1 2 4 4 3 2 1 1 0 0 0 0 1 0 0 0 0 0 0 0 0 0 0 0 0 0 0 0 1 1 0 0 0 0 0 0 0
25 20 14 10 6 3 3 6 8 8 5 3 2 2 2 1 0 0 1 0 0 1 1 0 0 0 0 0 0 0 0 0 0 1 2 1 0 0 0 0 0 0 0
23 19 15 13 9 7 9 10 12 12 8 5 3 3 3 2 1 2 2 1 1 1 1 0 0 0 0 0 0 0 0 0 0 2 4 3 1 0 0 0 0 0 0
21 19 17 14 11 11 14 14 13 13 10 8 5 2 1 1 2 4 4 2 1 1 1 0 0 0 0 0 0 0 0 0 0 1 3 2 1 0 0 0 0 0 0
20 19 15 12 10 11 12 14 14 12 10 9 6 2 1 1 3 4 4 2 1 0 0 1 1 1 0 0 0 0 0 0 0 1 1 1 0 0 0 0 0 0 0
18 16 13 10 10 10 9 10 11 10 8 8 5 3 2 2 3 3 2 1 1 1 1 1 2 2 1 0 0 1 1 1 0 0 1 1 0 0 0 0 0 0 0
15 13 10 9 9 9 10 9 8 8 8 6 5 4 4 4 3 2 1 1 1 1 1 1 1 1 1 0 1 2 2 1 0 0 0 1 0 0 0 0 0 0 0
14 13 11 8 8 9 11 10 9 8 7 6 5 4 4 4 3 2 2 2 2 2 1 0 0 0 0 0 1 2 2 2 1 0 0 0 0 0 0 1 0 0 0
14 15 14 11 11 12 12 12 11 8 5 5 5 4 3 2 2 1 2 3 3 2 1 0 0 0 0 0 0 1 1 1 1 0 0 0 0 0 0 0 0 0 0
14 16 17 16 16 16 15 14 13 8 5 5 4 3 2 1 0 1 3 4 3 1 1 0 0 0 0 0 0 0 0 1 1 0 0 0 0 0 0 0 0 0 0
15 16 18 18 18 17 16 14 12 9 6 4 4 3 3 1 1 2 3 3 2 1 0 0 0 0 0 0 0 0 0 0 0 0 0 0 0 0 0 0 0 0 0
17 15 16 18 17 16 13 10 9 9 6 3 3 4 4 1 1 3 3 2 1 0 0 0 0 0 0 0 0 0 0 0 0 0 0 0 0 0 0 0 0 0 0
17 16 16 18 17 14 11 7 6 5 3 2 3 4 3 1 1 2 2 1 0 0 0 0 0 0 0 1 1 1 0 0 0 0 0 0 0 0 0 0 0 0 0
15 15 16 17 17 14 10 7 6 3 1 2 4 4 3 2 2 2 2 1 0 0 0 0 0 0 0 1 2 1 0 0 0 0 0 0 0 0 0 0 0 0 0
14 13 14 15 16 15 11 9 7 3 1 2 4 4 3 3 3 2 3 2 1 0 0 0 0 0 0 1 2 1 0 0 0 0 0 0 0 0 0 0 0 0 0

GEFSSE_con_prob3kmehi_168.txt.gz
EHI
39 38 39 29 11 2 0 0 0 0 0 0 0 0 0 0 0 0 0 1 2 2 1 0 1 2 3 2 1 0 1 2 3 4 3 2 2 1 1 1 1 0 0
41 40 40 31 14 4 1 1 0 0 0 0 0 0 0 0 0 0 0 0 1 1 0 0 1 2 2 1 0 0 0 1 1 2 2 2 2 1 1 1 1 0 0
42 39 38 32 18 6 2 2 1 0 0 0 0 0 0 0 0 0 0 0 0 0 0 0 1 2 1 0 0 0 0 0 0 1 1 1 1 1 0 1 1 0 0
38 37 38 35 21 8 3 3 1 0 0 0 0 0 0 0 0 0 0 0 0 0 0 0 1 1 0 0 0 0 0 0 1 1 0 0 0 0 0 0 0 0 0
39 42 46 41 26 12 6 4 1 0 0 0 0 0 0 0 0 0 0 0 0 0 0 0 0 0 0 0 0 0 0 1 2 1 0 0 0 0 0 0 0 0 0
47 50 52 46 31 17 9 5 1 0 0 0 0 0 0 0 0 0 0 0 0 0 0 0 0 0 0 0 0 0 1 2 3 3 2 1 0 0 0 0 0 0 0
57 53 51 47 35 20 10 4 1 0 0 0 0 0 0 0 0 0 0 0 0 0 0 0 0 0 0 0 0 0 3 6 6 5 5 2 0 0 0 0 0 0 0
60 52 45 41 30 17 9 3 1 0 0 0 0 0 0 0 0 0 0 0 0 0 0 0 0 0 0 0 0 0 5 11 9 5 5 2 0 0 0 0 0 0 0
58 46 33 26 20 11 6 3 1 0 0 0 0 0 0 0 0 0 0 0 0 0 0 0 0 0 0 0 0 1 7 12 8 4 3 1 0 0 0 0 0 0 0
53 39 24 17 11 7 4 3 1 0 0 0 0 0 0 0 0 0 0 0 0 0 0 0 0 0 0 0 1 3 7 8 5 2 1 2 2 1 0 0 0 0 0
49 39 28 19 11 5 3 2 1 1 0 0 0 0 0 0 0 0 0 0 0 0 0 0 0 0 0 1 2 3 5 4 2 2 2 5 6 3 0 0 0 0 1
53 47 38 27 15 7 4 3 2 1 0 0 0 0 0 0 1 1 1 0 0 0 0 0 0 0 0 1 2 3 3 2 1 2 4 8 9 5 1 0 0 0 1
58 54 46 36 26 19 14 9 4 2 1 0 0 0 0 1 2 4 2 0 0 0 0 0 1 1 1 2 2 2 2 2 2 3 4 9 11 6 1 0 0 0 1
59 55 50 46 43 39 30 18 8 4 2 1 2 2 2 3 6 7 5 2 1 0 0 0 1 1 2 1 1 1 2 4 6 6 6 10 12 7 2 0 0 0 0
58 56 54 55 55 52 43 29 17 10 6 6 7 6 7 11 14 13 8 3 1 1 1 1 1 1 2 1 0 1 4 6 9 10 10 12 12 9 3 1 0 1 1
57 56 55 54 55 53 47 39 28 18 13 12 13 12 14 21 24 20 11 5 3 3 3 3 1 1 2 2 1 3 6 7 9 10 10 10 11 9 6 2 1 1 1
54 53 48 46 48 49 47 43 33 24 17 19 24 23 22 26 26 20 12 7 7 7 5 4 3 1 1 1 2 4 6 9 11 10 7 8 9 9 7 5 3 1 1
53 51 45 41 43 45 45 43 38 30 25 29 36 33 26 24 22 16 13 11 10 8 5 4 3 2 2 1 2 3 6 10 11 8 5 7 10 10 10 9 7 4 3
55 53 48 43 43 44 44 45 46 43 39 40 43 37 27 21 17 14 13 13 11 9 7 5 4 3 2 1 1 2 3 7 9 6 4 8 12 12 11 11 9 6 3
55 54 50 47 46 44 44 47 50 50 46 42 40 34 24 17 14 13 12 11 10 9 8 7 5 3 2 1 0 1 1 4 6 4 4 9 11 10 9 9 9 5 2
53 51 48 48 48 46 45 47 50 50 46 40 34 28 20 14 11 10 10 10 9 9 8 6 4 3 2 1 1 0 0 2 3 3 3 6 6 6 6 7 7 5 2
51 48 46 48 50 49 48 46 46 46 43 37 30 23 19 14 9 8 10 10 8 7 5 4 3 2 2 2 1 0 0 1 2 1 2 2 2 3 4 4 5 5 2
49 46 46 50 54 52 49 43 39 38 37 34 29 23 18 14 11 11 11 9 9 8 6 3 3 2 2 2 1 0 0 0 0 0 1 1 1 1 1 1 2 2 1
43 42 44 50 52 49 45 41 36 31 30 29 27 24 20 15 12 12 10 8 9 9 7 3 2 2 2 1 0 0 0 0 0 0 0 1 1 1 0 0 0 1 1
38 37 39 44 45 41 39 39 37 31 28 27 25 23 20 14 11 10 9 7 7 8 6 3 2 3 2 1 0 0 0 0 0 0 0 1 1 0 0 0 0 0 1
35 34 36 40 41 36 34 37 38 34 28 25 22 20 18 14 9 8 8 7 5 5 4 2 3 3 2 1 0 0 0 0 0 0 0 0 1 0 0 0 0 0 1

GEFSSE_con_prob3kmehi_174.txt.gz
EHI
4 10 20 23 17 9 6 6 5 4 3 2 2 1 0 0 0 0 0 0 0 0 0 0 0 1 2 1 0 0 0 1 0 0 0 0 1 2 1 0 0 0 0
10 13 22 26 20 12 8 7 4 3 2 1 1 0 0 0 0 0 0 0 0 0 0 0 0 1 2 2 0 0 0 1 0 0 0 0 1 1 1 0 0 0 0
22 20 24 29 25 15 10 6 3 2 1 0 0 0 0 0 0 0 0 0 0 0 0 0 1 2 2 1 0 0 0 0 0 0 0 0 0 0 0 0 0 0 0
30 25 26 31 27 18 11 7 4 2 0 0 0 0 0 0 0 0 0 0 0 0 0 1 1 2 2 1 0 0 0 0 0 0 0 0 0 0 0 0 0 0 0
30 28 31 35 30 20 14 9 5 2 1 0 0 0 0 0 0 0 0 0 0 0 0 1 2 2 1 0 0 0 0 0 0 0 0 0 0 0 0 0 0 0 0
29 28 34 38 32 22 17 12 6 2 1 0 0 0 0 0 0 0 0 0 0 0 0 1 1 1 0 0 0 0 0 0 0 0 0 0 0 0 0 0 0 0 0
31 30 33 37 32 24 18 13 7 3 0 0 0 0 0 0 0 0 0 0 0 0 0 0 0 0 0 0 0 0 0 0 0 0 0 0 0 0 0 0 0 0 0
38 34 30 29 27 23 19 15 10 5 1 0 0 0 0 0 0 0 0 0 0 0 0 0 0 0 0 0 0 0 0 1 0 0 0 0 0 0 0 0 0 0 0
42 37 26 19 18 18 16 13 10 6 2 0 0 0 0 0 0 0 0 0 0 0 0 0 0 0 0 0 1 1 1 2 1 0 0 0 0 0 0 0 0 0 0
38 32 23 15 12 11 9 8 7 5 2 0 0 0 0 0 0 0 0 0 0 0 0 0 0 0 0 1 2 3 1 1 0 0 0 0 1 1 0 0 0 0 0
32 27 21 17 11 6 4 4 4 3 1 0 0 0 0 0 0 0 0 0 0 0 0 0 1 1 1 1 2 2 1 0 0 0 0 0 1 2 1 0 0 0 0
28 24 19 15 10 5 3 2 2 1 1 0 0 0 0 0 0 0 0 0 0 0 0 0 1 2 1 1 1 1 0 0 0 0 0 1 1 2 1 0 0 0 0
25 21 16 11 7 3 2 1 1 0 0 0 0 0 0 0 0 0 0 0 0 0 0 0 1 1 1 0 0 0 0 0 0 0 0 1 1 1 1 0 0 0 0
26 20 14 10 6 3 1 0 0 0 0 0 0 0 0 0 0 0 0 0 0 0 0 0 0 0 0 0 0 0 0 0 0 0 0 0 1 1 0 0 0 0 0
27 22 16 11 7 3 1 0 0 0 0 0 0 0 0 0 0 0 0 0 0 0 0 0 0 0 0 0 0 0 0 0 0 0 0 0 0 1 0 0 0 0 0
29 26 21 15 8 3 1 0 0 1 0 0 0 0 0 0 0 0 0 0 0 0 0 0 0 0 0 0 0 0 0 0 0 0 0 0 0 0 0 0 0 0 0
36 33 28 20 12 5 1 0 0 1 0 0 0 0 0 0 0 0 0 0 0 0 0 0 0 0 0 0 0 0 0 0 0 0 0 0 0 0 0 0 0 0 0
42 38 33 27 18 9 4 1 1 1 0 0 0 0 0 0 0 0 0 0 0 0 0 0 0 0 0 0 0 0 0 0 0 0 0 0 0 0 1 1 1 0 0
44 41 36 31 24 14 8 4 2 1 0 0 0 0 0 0 0 0 0 0 0 0 0 0 0 0 0 0 0 0 0 0 0 0 0 0 0 0 0 0 0 0 0
44 40 35 30 24 18 13 9 6 2 1 1 0 0 0 0 0 0 0 0 0 0 0 0 0 0 0 0 0 0 0 0 0 0 0 0 0 0 0 0 0 0 0
42 37 30 25 22 20 17 13 9 4 2 1 1 0 0 1 0 0 0 0 0 0 0 0 0 0 0 0 0 0 0 0 0 0 0 0 0 0 0 0 0 0 0
39 34 27 23 22 21 18 13 8 4 2 1 1 0 0 0 0 0 0 0 0 0 0 0 0 0 0 0 0 0 0 0 0 0 0 0 0 0 0 0 0 0 0
39 35 28 24 24 22 18 13 8 5 2 1 0 0 0 0 0 0 0 0 0 0 0 0 0 0 0 0 0 0 0 0 0 0 0 0 0 0 0 0 0 0 0
41 37 31 28 28 24 18 14 10 6 3 1 0 0 0 0 0 0 0 0 0 0 0 0 0 0 0 0 0 0 0 0 0 0 0 0 0 0 0 0 0 0 0
42 39 34 31 29 25 18 13 10 6 3 1 1 0 0 0 0 0 0 0 0 0 0 0 0 0 0 0 0 0 0 0 0 0 0 0 0 0 0 0 0 0 0
42 40 36 31 28 24 17 11 8 5 2 2 2 1 0 0 0 0 0 0 0 0 0 0 0 0 0 0 0 0 0 0 0 0 0 0 0 0 0 0 0 0 0

GEFSSE_con_prob3kmehi_180.txt.gz
EHI
3 4 5 4 3 5 6 8 10 11 8 3 1 0 0 0 0 0 0 0 0 0 0 0 1 1 1 0 0 0 0 0 0 0 0 0 0 0 0 0 0 0 0
7 8 9 8 7 8 10 10 11 10 6 2 0 0 0 0 0 0 0 0 0 0 0 0 0 1 2 1 0 0 0 0 0 0 0 0 0 0 0 0 0 0 0
12 11 12 13 12 13 13 12 11 9 4 1 0 0 0 0 0 0 0 0 0 0 0 0 1 2 2 1 1 1 1 0 0 0 0 0 0 0 0 0 0 0 0
12 11 13 16 17 16 15 14 12 7 2 0 0 0 0 0 0 0 0 0 0 0 0 0 1 1 1 1 1 1 1 0 0 0 0 0 0 0 0 0 0 0 0
10 11 15 19 21 19 16 14 11 6 1 0 0 0 0 0 0 0 0 0 0 0 0 0 0 1 1 2 2 1 0 0 0 0 0 0 0 0 0 0 0 0 0
10 10 14 20 22 19 16 14 10 5 1 0 0 0 0 0 0 0 0 0 0 0 0 0 1 2 2 2 1 0 0 1 0 0 0 0 0 0 0 0 0 0 0
11 9 11 18 20 16 14 12 9 5 2 1 0 0 0 0 0 0 0 0 0 0 0 1 2 2 1 1 0 0 0 0 0 0 0 0 0 0 0 0 0 0 0
15 11 10 14 15 14 12 10 8 6 3 1 0 0 0 0 0 0 0 0 0 0 1 2 2 1 0 0 0 0 0 0 0 0 0 0 0 0 0 0 0 0 0
17 14 12 11 12 11 10 9 8 6 4 1 0 0 0 0 0 0 0 0 0 0 1 1 1 0 0 0 0 0 0 0 0 0 0 0 0 0 0 0 0 0 0
16 14 13 12 11 9 8 7 8 7 4 2 0 0 0 0 0 0 0 0 0 0 0 0 0 0 0 0 0 0 0 0 0 0 0 0 0 0 0 0 0 0 0
14 13 12 11 10 8 8 7 7 6 4 2 0 0 0 0 0 0 0 0 0 0 0 0 0 0 0 0 0 1 0 0 0 0 0 0 0 0 0 0 0 0 0
14 12 10 8 7 7 7 7 5 4 3 1 0 0 0 0 0 0 0 0 0 0 0 0 0 0 0 0 0 0 0 0 0 0 0 0 0 0 0 0 0 0 0
14 11 8 6 5 6 6 6 5 3 3 2 0 0 0 0 0 0 0 0 0 0 0 0 0 0 0 0 0 0 0 0 0 0 0 0 0 0 0 0 0 0 0
13 11 8 6 6 5 5 5 5 4 2 1 0 0 0 0 0 0 0 0 0 0 0 0 0 0 0 0 0 0 0 0 0 0 0 0 0 0 0 0 0 0 0
12 10 8 7 6 5 4 3 3 3 1 0 0 0 0 0 0 0 0 0 0 0 0 0 0 0 0 0 0 0 0 0 0 0 0 0 0 0 0 0 0 0 0
10 9 8 7 6 4 2 1 1 1 0 0 0 0 1 0 0 0 0 0 0 0 0 0 0 0 0 0 0 0 0 0 0 0 0 0 0 0 0 0 0 0 0
10 8 7 6 4 1 1 0 0 0 0 0 0 0 0 0 0 0 0 0 0 0 0 0 0 0 0 0 0 0 0 0 0 0 0 0 0 0 0 0 0 0 0
11 9 7 6 3 0 0 0 0 0 0 0 0 0 0 0 0 0 0 0 0 0 0 0 0 0 0 0 0 0 0 0 0 0 0 0 0 0 0 0 0 0 0
12 10 8 7 4 1 0 0 0 0 0 0 0 0 0 0 0 0 0 0 0 0 0 0 0 0 0 0 0 0 0 0 0 0 0 0 0 0 0 0 0 0 0
12 10 9 9 6 2 1 1 0 0 0 0 0 0 0 0 0 0 0 0 0 0 0 0 0 0 0 0 0 0 0 0 0 0 0 0 0 0 0 0 0 0 0
13 12 11 10 8 4 2 1 0 0 0 0 0 0 0 0 0 0 0 0 0 0 0 0 0 0 0 0 0 0 0 0 0 0 0 0 0 0 0 0 0 0 0
19 17 14 12 9 6 3 1 0 0 0 0 0 0 0 0 0 0 0 0 0 0 0 0 0 0 0 0 0 0 0 0 0 0 0 0 0 0 0 0 0 0 0
28 24 19 14 10 7 5 3 2 1 0 0 0 0 0 0 0 0 0 0 0 0 0 0 0 0 0 0 0 0 0 0 0 0 0 0 0 0 0 0 1 0 0
33 30 22 16 13 10 7 6 5 3 1 0 0 0 0 0 0 0 0 0 0 0 0 0 0 0 0 0 0 0 0 0 0 0 0 0 0 0 0 0 0 0 0
33 30 23 17 16 13 9 7 6 4 2 1 0 0 0 0 0 0 0 0 0 0 0 0 0 0 0 0 0 0 0 0 0 0 0 0 0 0 0 0 0 0 0
32 29 22 18 17 14 10 7 6 4 2 1 0 0 0 0 0 0 0 0 0 0 0 0 0 0 0 0 0 0 0 0 0 0 0 0 0 0 0 0 0 0 0

GEFSSE_con_prob3kmehi_186.txt.gz
EHI
2 2 1 0 1 2 2 2 3 3 3 2 1 0 0 0 0 0 0 0 0 0 0 0 0 0 0 0 0 0 0 0 0 0 0 0 0 0 0 0 0 0 0
3 2 1 0 2 2 2 2 2 2 2 1 0 0 0 0 0 0 0 0 0 0 0 0 0 0 0 0 0 0 0 0 0 0 0 0 0 0 0 0 0 0 0
3 2 1 0 1 2 2 2 1 1 1 0 0 0 0 0 0 0 0 0 0 0 0 0 0 0 0 0 0 0 0 0 0 0 0 0 0 0 0 0 0 0 0
3 3 1 0 0 1 1 1 0 0 0 0 0 0 0 0 0 0 0 0 0 0 0 0 0 0 0 0 0 0 0 0 0 0 0 0 0 0 0 0 0 0 0
3 3 3 2 1 2 2 2 1 0 0 0 0 0 0 0 0 0 0 0 0 0 0 0 0 0 0 0 0 0 0 0 0 0 0 0 0 0 0 0 0 0 0
2 4 6 5 3 3 3 3 2 1 0 0 0 0 0 0 0 0 0 0 0 0 0 0 0 0 0 0 0 0 0 0 0 0 0 0 0 0 0 0 0 0 0
1 4 8 6 3 3 3 3 2 1 0 0 0 0 0 0 0 0 0 0 1 1 1 0 0 0 0 0 0 0 0 0 0 0 0 0 0 0 0 0 0 0 0
2 6 9 6 3 2 3 3 2 1 0 0 0 0 0 1 1 1 1 0 1 1 1 0 0 0 0 0 0 0 0 0 0 0 0 0 0 0 0 0 0 0 0
2 6 8 6 1 1 1 2 1 0 0 0 0 0 0 1 1 1 1 0 0 0 0 0 0 0 0 0 0 0 0 0 0 0 0 0 0 0 0 0 0 0 0
2 4 6 4 1 0 0 0 0 0 0 0 0 0 0 0 1 1 0 0 0 0 0 0 1 0 0 0 0 0 0 0 0 0 0 0 0 0 0 0 0 0 0
5 6 6 4 2 1 1 1 0 0 0 0 0 0 0 0 0 0 0 0 0 0 0 0 0 0 0 0 0 0 0 0 0 0 0 0 0 0 0 0 0 0 0
10 10 8 5 4 3 2 2 1 0 0 0 0 0 0 0 0 0 0 0 0 0 0 0 0 0 0 0 0 0 0 0 0 0 0 0 0 0 0 0 0 0 0
14 13 10 8 7 6 4 2 1 1 1 0 0 0 0 1 1 1 0 0 0 0 0 0 0 0 0 0 0 0 0 0 0 1 1 1 0 0 0 0 0 0 0
17 16 14 11 10 7 4 3 2 2 2 1 1 1 1 2 2 1 1 1 0 0 0 0 0 0 0 0 0 0 0 0 0 1 1 1 0 0 0 0 0 0 0
21 19 18 15 12 8 5 3 3 2 2 2 2 1 1 2 3 3 2 2 1 0 0 0 0 0 0 0 0 0 0 0 0 0 0 0 0 0 0 0 0 0 0
23 22 20 18 14 9 5 3 2 1 1 1 1 0 0 1 2 2 2 2 1 0 0 0 0 0 0 0 0 0 0 0 0 0 0 0 0 0 0 0 0 0 0
24 23 21 18 14 9 5 3 1 0 0 0 0 0 0 0 1 1 1 1 0 0 0 0 0 0 0 0 0 0 0 0 0 0 0 0 0 0 0 0 0 0 0
24 23 20 16 11 9 7 5 2 1 0 0 1 1 1 0 0 0 0 0 0 0 0 0 0 1 1 1 0 0 0 0 0 0 0 0 0 0 0 0 0 0 0
25 24 21 17 12 10 10 9 5 3 2 1 2 2 1 0 0 0 0 0 0 0 0 0 0 1 2 1 0 0 0 1 0 0 0 0 0 0 0 0 0 0 0
25 25 23 19 16 14 14 13 9 6 5 4 2 1 1 0 0 0 0 0 0 0 0 0 0 0 1 1 0 0 0 0 0 0 0 0 0 0 0 0 0 0 1
27 28 27 24 20 18 18 17 13 10 8 6 3 1 0 0 0 0 0 0 0 0 0 0 0 0 0 0 0 0 0 0 0 0 1 1 0 0 0 0 0 0 1
30 31 31 30 26 22 19 17 16 14 10 7 5 2 0 0 0 0 0 0 0 0 0 0 0 0 0 0 0 0 0 0 0 0 1 1 1 0 0 0 0 0 1
35 35 34 34 32 26 21 17 17 16 11 7 6 4 2 2 1 1 1 1 1 0 1 1 0 0 0 0 0 0 0 0 0 0 1 1 1 1 0 0 0 0 0
37 38 38 38 36 32 26 21 18 15 9 6 7 7 6 5 4 3 3 3 2 1 2 2 1 0 0 0 0 0 0 0 0 0 0 0 0 0 0 0 0 0 0
34 36 39 39 38 36 31 27 21 14 8 6 7 8 8 7 6 5 5 5 3 2 1 2 1 0 0 0 0 0 0 0 0 0 0 0 0 0 0 0 0 0 0
28 33 37 38 38 37 33 30 22 14 8 6 7 8 6 6 6 6 5 5 4 1 1 1 1 0 0 0 0 0 0 0 0 0 0 0 0 0 0 0 0 0 0